Погода в Ревде

Россия / Свердловская область     56°48′00″N   59°54′31″E
темп.,
°C
ветер,
м/с
пор.,
м/с
влажн.,
%
обл.,
%
осадки,
мм/ч
давл.,
гПа
погр.,
м
8 мая, сб
сб823:00+10зюз117735 0.0 101810
02:00+9ююз22795 0.0 101811
05:00+8зюз11785 0.0 101810
08:00+14юз0156100 0.0 1017149
11:00+20ссв0038100 0.0 10171485
14:00+19зсз2134100 0.0 10162215
17:00+18зсз1244100 0.0 10161206
20:00+14св3764100 0.2 1017274
9 мая, вс
вс923:00+12с2471100 0.7 101792
02:00+10всв1178100 0.0 101710
05:00+9с118499 0.0 101712
08:00+13св1370100 0.0 1018254
11:00+18св2344100 0.0 1017876
14:00+18всв2341100 0.0 10171234
17:00+19св2335100 0.0 10171750
20:00+14св2558100 0.0 1019103
10 мая, пн
пн1023:00+11всв116752 0.0 102010
02:00+9всв117696 0.0 102110
05:00+9вюв117214 0.0 102110
08:00+14вюв24575 0.0 1022318
11:00+19в34425 0.0 10221604
14:00+21вюв34315 0.0 10222148
17:00+21вюв32297 0.0 10222308
20:00+16вюв264792 0.0 1023113
11 мая, вт
вт1123:00+11ю285795 0.0 1024149
02:00+10ю2457100 0.0 102487
05:00+11ююз2256100 0.0 102432
08:00+12зсз3665100 0.0 1025273
11:00+15сз256999 0.0 1025708
14:00+14сз576352 0.5 10261083
17:00+16ссз57361 0.5 10261679
20:00+13ссз3750100 0.0 1027251
12 мая, ср
ср1223:00+8зсз117351 0.0 102910
02:00+7з1170100 0.0 103010
05:00+6зсз1167100 0.0 103111
08:00+11зсз2452100 0.0 1031307
11:00+10з2758100 0.0 1030385
14:00+15сз4754100 0.0 1029640
17:00+18сз5854100 0.0 10271661
20:00+15сз396699 0.1 1027394